#timestamp,LO_Frequency,Hit,StdDev 
1560974415.7,286047000.5,N
1560974435.5,286046999.9,N
1560974455.4,286047000.6,N
1560974475.2,286047000.6,N
1560974495.0,286047002.6,N
1560974496.0,286047002.6,N
1560974515.8,286047002.8,N
1560974535.6,286047002.3,N
1560974555.5,286047002.0,N
1560974575.3,286047002.3,N
1560974595.1,286047002.7,N
1560974615.9,286047002.5,N
1560974635.7,286047001.9,N
1560974655.6,286047000.3,N
1560974675.4,286047000.7,N
1560974695.2,286047001.2,N
1560974715.1,286047001.1,N
1560974716.0,286047001.1,N
1560974735.8,286047001.1,N
1560974755.6,286047000.9,N
1560974775.5,286047000.2,N
1560974795.3,286047002.0,N
1560974815.2,286047001.6,N
1560974835.9,286047002.5,N
1560974855.7,286047000.1,N
1560974875.6,286047002.7,N
1560974895.4,286047001.9,N
1560974915.2,286047000.1,N
1560974935.1,286047003.4,Y
1560974936.0,286047003.4,P
1560974955.8,286047002.4,N
1560974975.7,286047002.5,P
1560974995.5,286046998.6,N
1560975015.3,286047001.1,N
1560975035.2,286047000.8,N
1560975055.0,286046999.9,N
1560975055.9,286046999.9,N
1560975075.7,286047000.5,N
1560975095.6,286047000.5,N
1560975115.4,286047000.7,N
1560975135.3,286046999.8,N
1560975155.1,286047000.4,N
1560975175.8,286047000.7,N
1560975195.7,286046998.1,N
1560975215.5,286047000.6,N
1560975235.4,286047002.5,N
1560975255.2,286047001.3,N
1560975275.0,286047002.2,N
1560975275.9,286047002.2,N
1560975295.8,286047002.5,N
1560975315.6,286047002.3,N
1560975335.4,286047002.3,N
1560975355.3,286046999.7,N
1560975375.1,286046999.9,N
1560975395.9,286047000.4,N
1560975415.7,286047002.5,N
1560975435.5,286047001.6,N
1560975455.4,286047001.2,N
1560975475.2,286047000.7,N
1560975495.0,286046999.9,N
1560975495.9,286046999.9,N
1560975515.8,286047002.4,N
1560975535.6,286047002.7,N
1560975555.5,286047002.0,N
1560975575.3,286047002.1,N
1560975595.1,286046999.7,N
1560975615.9,286047002.3,N
1560975635.7,286047002.8,N
1560975655.6,286047000.2,N
1560975675.4,286047000.1,N
1560975695.2,286047002.0,N
1560975715.1,286047002.2,N
1560975716.0,286047002.2,N
1560975735.8,286047001.5,N
1560975755.6,286047001.5,N
1560975775.5,286047001.9,N
1560975795.3,286047001.8,N
1560975815.2,286047002.0,N
1560975835.9,286047002.3,N
1560975855.7,286047002.3,N
1560975875.6,286047002.4,N
1560975895.4,286046999.7,N
1560975915.2,286046999.9,N
1560975935.1,286047002.3,N
1560975936.0,286047002.3,N
1560975955.8,286047002.5,N
1560975975.7,286047002.7,N
1560975995.5,286047000.2,N
1560976015.3,286047002.6,N
1560976035.2,286047001.7,N
1560976055.0,286047002.5,N
1560976055.9,286047002.5,N
1560976075.8,286047004.3,Y
1560976095.6,286046999.7,P
1560976115.4,286047002.7,N
1560976135.3,286047000.9,N
1560976155.1,286047001.0,N
1560976175.8,286047000.6,N
1560976195.7,286047002.4,N
1560976215.5,286047002.5,N
1560976235.3,286047001.6,N
1560976255.2,286047001.6,N
1560976275.0,286047003.9,Y
1560976275.9,286047003.9,P
1560976295.8,286046999.8,N
1560976315.6,286047002.3,N
1560976335.4,286047000.1,N
1560976355.3,286047000.1,N
1560976375.1,286047000.0,N
1560976395.9,286047001.1,N
1560976415.7,286047001.0,N
1560976435.5,286046998.5,N
1560976455.4,286046999.4,N
1560976475.2,286046998.6,N
1560976495.0,286047000.6,N
1560976495.9,286047000.6,N
1560976515.8,286046998.4,N
1560976535.6,286046998.4,N
1560976555.5,286046998.4,N
1560976575.3,286046998.4,N
1560976595.1,286046998.9,N
1560976615.9,286046998.8,N
1560976635.7,286047001.1,N
1560976655.5,286046998.2,N
1560976675.4,286046998.3,N
1560976695.2,286046999.0,N
1560976745.1,286046999.1,E
1560976755.0,286046998.6,N
1560976755.9,286046998.6,P
1560976775.8,286047000.6,P
1560976795.6,286047000.9,N
1560976815.4,286046999.4,N
1560976835.3,286046999.1,N
1560976855.1,286046996.9,Y
1560976875.9,286046999.1,P
1560976895.7,286046996.7,P
1560976915.5,286046996.6,N
1560976935.4,286046997.0,N
1560976955.2,286046996.9,N
1560976975.0,286046997.7,N
1560976975.9,286046997.7,N
1560976995.8,286046997.8,N
1560977015.6,286046995.2,Y
1560977035.5,286046996.6,P
1560977055.3,286046999.2,N
1560977075.1,286046999.2,N
1560977095.9,286046998.7,N
1560977115.7,286046998.7,N
1560977135.6,286046998.4,N
1560977155.4,286046998.3,N
1560977175.2,286047001.2,N
1560977195.1,286047001.0,N
1560977196.0,286047001.0,N
1560977215.8,286047000.1,N
1560977235.6,286047000.4,N
1560977255.5,286047000.3,N
1560977275.3,286047000.3,N
1560977295.1,286047000.5,N
1560977315.9,286047001.2,N
1560977335.7,286047000.9,N
1560977355.6,286047000.9,N
1560977375.4,286047000.8,N
1560977395.2,286047000.9,N
1560977415.1,286047000.1,N
1560977416.0,286047000.1,N
1560977435.8,286047000.5,N
1560977455.7,286046999.7,N
1560977475.5,286047001.9,N
1560977495.3,286046998.6,N
1560977515.2,286046998.3,N
1560977535.0,286046996.9,N
1560977535.9,286046996.9,N
1560977555.7,286046997.7,N
1560977575.6,286046999.3,N
1560977595.4,286046998.1,N
1560977615.3,286047000.8,N
1560977635.1,286047001.0,N
1560977636.0,286047001.0,N
1560977655.8,286047000.7,N
1560977675.7,286047000.3,N
1560977695.5,286046999.9,N
1560977715.3,286047000.1,N
1560977735.2,286047002.8,N
1560977755.0,286047002.7,N
1560977755.9,286047002.7,N
1560977775.8,286046999.8,N
1560977795.6,286047001.0,N
1560977815.4,286047000.9,N
1560977835.3,286046999.9,N
1560977855.1,286047000.7,N
1560977875.8,286047000.7,N
1560977895.7,286047000.9,N
1560977915.5,286047000.9,N
1560977935.4,286047000.4,N
1560977955.2,286047000.0,N
1560977975.0,286047002.6,N
1560977975.9,286047002.6,N
1560977995.8,286047001.0,N
